F4NFR-13 Weather Reports


time (UTC)temp
F
wind
direction
speed
knots
gust
knots
rain 1hr
in
rain 24hr
in
rain mn
in
humidity
%
barometer
mb
20260507214644 48 14 0.0 0.0 0.00 0.00 0.00 89 1018.8
20260507214142 48 180 0.9 0.9 0.00 0.00 0.00 89 1018.8
20260507213639 48 357 0.0 0.0 0.00 0.00 0.00 89 1018.8
20260507212132 48 41 0.0 0.9 0.00 0.00 0.00 88 1018.8
20260507210625 48 0 0.0 0.0 0.00 0.00 0.00 86 1018.8
20260507210122 48 275 0.9 0.9 0.00 0.00 0.00 87 1018.8
20260507205620 48 319 0.9 0.9 0.00 0.00 0.00 87 1018.8
20260507205117 48 24 0.0 0.0 0.00 0.00 0.00 87 1018.8
20260507204112 48 20 0.0 0.0 0.00 0.00 0.00 86 1018.8
20260507203610 48 23 0.0 0.0 0.00 0.00 0.00 86 1018.8
20260507203107 48 18 0.0 0.0 0.00 0.00 0.00 85 1018.8
20260507202103 50 19 0.0 0.0 0.00 0.00 0.00 84 1018.4
20260507201600 50 44 0.9 0.9 0.00 0.00 0.00 84 1018.4
20260507201058 50 28 0.0 0.0 0.00 0.00 0.00 83 1018.4
20260507200556 50 72 0.9 0.9 0.00 0.00 0.00 83 1018.4
20260507200053 50 73 0.0 0.0 0.00 0.00 0.00 82 1018.4
20260507195551 50 38 0.0 0.0 0.00 0.00 0.00 82 1018.4
20260507195049 50 64 0.0 0.0 0.00 0.00 0.00 81 1018.4
20260507194547 50 36 0.0 0.0 0.00 0.00 0.00 81 1018.4
20260507194044 50 18 0.0 0.0 0.00 0.00 0.00 80 1018.1
20260507193542 50 87 0.0 0.9 0.00 0.00 0.00 80 1018.1
20260507193039 50 12 0.0 0.0 0.00 0.00 0.00 79 1018.1
20260507192537 52 85 1.7 2.6 0.00 0.00 0.00 79 1018.1
20260507192034 52 69 0.9 0.9 0.00 0.00 0.00 79 1018.1
20260507191532 52 88 1.7 2.6 0.00 0.00 0.00 79 1018.1
20260507191029 52 61 0.9 0.9 0.00 0.00 0.00 79 1018.1
20260507190527 52 68 0.9 1.7 0.00 0.00 0.00 79 1017.8
20260507190025 52 52 0.9 0.9 0.00 0.00 0.00 79 1017.8
20260507185522 52 70 1.7 1.7 0.00 0.00 0.00 78 1017.8
20260507185020 52 69 1.7 2.6 0.00 0.00 0.00 78 1017.8
20260507184517 54 85 1.7 2.6 0.00 0.00 0.00 78 1017.8
20260507184015 54 83 1.7 1.7 0.00 0.00 0.00 77 1017.8
20260507183513 54 64 0.9 1.7 0.00 0.00 0.00 77 1017.8
20260507183010 54 97 2.6 5.2 0.00 0.00 0.00 76 1017.8
20260507182507 54 85 2.6 5.2 0.00 0.00 0.00 75 1017.8
20260507182005 54 36 2.6 2.6 0.00 0.00 0.00 75 1017.8
20260507181502 55 37 3.5 3.5 0.00 0.00 0.00 75 1017.8
20260507180959 55 76 1.7 3.5 0.00 0.00 0.00 74 1017.8
20260507180457 55 92 1.7 5.2 0.00 0.00 0.00 73 1017.8
20260507175955 55 86 2.6 3.5 0.00 0.00 0.00 73 1017.8
20260507175452 55 66 1.7 2.6 0.00 0.00 0.00 71 1017.8
20260507174950 55 84 2.6 5.2 0.00 0.00 0.00 71 1017.8
20260507174447 55 94 3.5 6.1 0.00 0.00 0.00 71 1017.8
20260507173945 55 77 3.5 6.1 0.00 0.00 0.00 71 1017.8
20260507172940 55 84 3.5 4.3 0.00 0.00 0.00 70 1017.8
20260507172438 55 90 5.2 7.8 0.00 0.00 0.00 69 1017.8
20260507171935 55 94 6.1 7.8 0.00 0.00 0.00 69 1017.8
20260507171432 55 89 3.5 6.1 0.00 0.00 0.00 69 1017.8
20260507170930 55 79 2.6 7.8 0.00 0.00 0.00 69 1017.8
20260507170428 57 42 2.6 5.2 0.00 0.00 0.00 68 1017.8
20260507165925 57 50 3.5 6.1 0.00 0.00 0.00 67 1017.8
20260507165423 57 18 2.6 5.2 0.00 0.00 0.00 65 1017.8
20260507164920 57 68 0.9 2.6 0.00 0.00 0.00 64 1017.8
20260507164418 57 73 2.6 3.5 0.00 0.00 0.00 65 1017.8
20260507163915 57 71 0.9 1.7 0.00 0.00 0.00 67 1017.8
20260507163413 57 26 2.6 2.6 0.00 0.00 0.00 67 1017.8
20260507162910 57 50 3.5 5.2 0.00 0.00 0.00 67 1017.8
20260507162408 57 73 1.7 1.7 0.00 0.00 0.00 65 1017.8
20260507161906 59 82 4.3 5.2 0.00 0.00 0.00 63 1017.8
20260507161404 61 180 1.7 1.7 0.00 0.00 0.00 63 1017.8
20260507160901 59 111 3.5 6.1 0.00 0.00 0.00 62 1017.8
20260507160359 59 11 1.7 2.6 0.00 0.00 0.00 62 1017.8
20260507155354 57 53 3.5 5.2 0.00 0.00 0.00 66 1017.8
20260507154852 57 66 3.5 5.2 0.00 0.00 0.00 65 1017.8
20260507154350 59 81 2.6 2.6 0.00 0.00 0.00 65 1017.8
20260507153847 59 73 2.6 3.5 0.00 0.00 0.00 64 1017.8
20260507153556 59 22 1.7 1.7 0.00 0.00 0.00 64 1017.8
20260507153345 59 22 1.7 1.7 0.00 0.00 0.00 64 1017.8
20260507153147 59 24 2.6 5.2 0.00 0.00 0.00 65 1017.8
20260507152842 59 24 2.6 5.2 0.00 0.00 0.00 65 1017.8
20260507152340 59 109 3.5 4.3 0.00 0.00 0.00 64 1017.8
20260507151837 59 39 3.5 3.5 0.00 0.00 0.00 61 1017.8
20260507151334 59 26 2.6 5.2 0.00 0.00 0.00 63 1017.8
20260507150832 59 88 1.7 3.5 0.00 0.00 0.00 61 1017.8
20260507150330 59 93 1.7 1.7 0.00 0.00 0.00 62 1017.8
20260507145827 59 102 3.5 5.2 0.00 0.00 0.00 65 1017.8
20260507145325 59 1 1.7 3.5 0.00 0.00 0.00 64 1017.8
20260507144822 59 83 1.7 1.7 0.00 0.00 0.00 65 1017.8
20260507144320 59 68 2.6 2.6 0.00 0.00 0.00 63 1017.8
20260507143818 59 44 4.3 6.1 0.00 0.00 0.00 65 1018.1
20260507143316 57 56 1.7 3.5 0.00 0.00 0.00 65 1018.1
20260507142813 57 47 6.1 6.1 0.00 0.00 0.00 64 1018.1
20260507141809 57 23 5.2 6.1 0.00 0.00 0.00 63 1018.1
20260507141306 57 74 4.3 5.2 0.00 0.00 0.00 65 1018.1
20260507140803 57 55 1.7 5.2 0.00 0.00 0.00 64 1018.1
20260507140301 57 50 3.5 5.2 0.00 0.00 0.00 60 1018.1
20260507135758 57 39 3.5 5.2 0.00 0.00 0.00 60 1018.1
20260507135256 57 93 3.5 5.2 0.00 0.00 0.00 61 1018.1
20260507134753 57 52 1.7 3.5 0.00 0.00 0.00 62 1018.4
20260507134251 57 91 5.2 5.2 0.00 0.00 0.00 61 1018.4
20260507133748 57 38 2.6 4.3 0.00 0.00 0.00 60 1018.4
20260507133246 57 75 1.7 2.6 0.00 0.00 0.00 61 1018.4
20260507132743 57 78 3.5 5.2 0.00 0.00 0.00 62 1018.4
20260507132241 57 29 0.9 1.7 0.00 0.00 0.00 61 1018.4
20260507131738 57 35 5.2 6.1 0.00 0.00 0.00 61 1018.1
20260507131236 57 82 3.5 4.3 0.00 0.00 0.00 64 1018.4
20260507130734 57 46 2.6 5.2 0.00 0.00 0.00 64 1018.4
20260507130231 57 31 4.3 5.2 0.00 0.00 0.00 64 1018.4
20260507125728 57 87 1.7 3.5 0.00 0.00 0.00 66 1018.4
20260507125226 55 18 1.7 1.7 0.00 0.00 0.00 66 1018.4
20260507124400 55 34 3.5 5.2 0.00 0.00 0.00 69 1018.4
20260507124222 55 34 3.5 5.2 0.00 0.00 0.00 69 1018.4
20260507123854 55 93 2.6 3.5 0.00 0.00 0.00 69 1018.4
20260507123719 55 93 2.6 3.5 0.00 0.00 0.00 69 1018.4
20260507123216 55 3 3.5 3.5 0.00 0.00 0.00 69 1018.4
20260507122714 55 16 1.7 2.6 0.00 0.00 0.00 72 1018.4
20260507122212 55 67 1.7 1.7 0.00 0.00 0.00 73 1018.4
20260507121709 55 21 3.5 4.3 0.00 0.00 0.00 73 1018.4
20260507121208 55 10 1.7 1.7 0.00 0.00 0.00 69 1018.4
20260507120705 55 36 0.9 1.7 0.00 0.00 0.00 72 1018.1
20260507120202 55 26 0.9 2.6 0.00 0.00 0.00 71 1018.1
20260507115700 55 52 0.9 1.7 0.00 0.00 0.00 71 1018.1
20260507115157 55 6 0.9 0.9 0.00 0.00 0.00 72 1018.1
20260507114656 55 41 0.9 0.9 0.00 0.00 0.00 73 1018.1
20260507114152 55 14 0.9 1.7 0.00 0.00 0.00 73 1018.1
20260507113650 55 0 0.9 0.9 0.00 0.00 0.00 72 1018.1
20260507113147 55 29 1.7 3.5 0.00 0.00 0.00 73 1018.4
20260507112645 55 337 0.9 1.7 0.00 0.00 0.00 72 1018.4
20260507112143 55 34 0.9 0.9 0.00 0.00 0.00 72 1018.4
20260507110635 55 29 2.6 3.5 0.00 0.00 0.00 73 1018.4
20260507110133 54 14 1.7 2.6 0.00 0.00 0.00 71 1018.4
20260507105630 54 28 3.5 5.2 0.00 0.00 0.00 73 1018.4
20260507104628 55 5 0.0 0.0 0.00 0.00 0.00 73 1018.4
20260507104626 55 5 0.0 0.0 0.00 0.00 0.00 73 1018.4
20260507104124 55 88 0.9 2.6 0.00 0.00 0.00 74 1018.4
20260507103621 55 0 0.0 0.0 0.00 0.00 0.00 75 1018.4
20260507103118 54 59 0.9 1.7 0.00 0.00 0.00 75 1018.4
20260507102616 54 15 3.5 4.3 0.00 0.00 0.00 77 1018.4
20260507102114 55 18 1.7 2.6 0.00 0.00 0.00 75 1018.4
20260507101612 55 338 1.7 2.6 0.00 0.00 0.00 75 1018.4
20260507101109 55 0 1.7 2.6 0.00 0.00 0.00 75 1018.4
20260507100607 55 5 0.9 1.7 0.00 0.00 0.00 75 1018.4
20260507100105 54 23 1.7 2.6 0.00 0.00 0.00 76 1018.4
20260507095602 54 8 5.2 6.1 0.00 0.00 0.00 75 1018.4
20260507095101 55 33 1.7 3.5 0.00 0.00 0.00 75 1018.4
20260507094558 55 7 0.9 0.9 0.00 0.00 0.00 74 1018.1
20260507094055 54 17 1.7 4.3 0.00 0.00 0.00 73 1018.1
20260507093553 54 40 2.6 3.5 0.00 0.00 0.00 74 1018.1
20260507093050 55 359 3.5 4.3 0.00 0.00 0.00 71 1018.1
20260507092548 55 19 1.7 2.6 0.00 0.00 0.00 75 1018.1
20260507092046 55 334 1.7 2.6 0.00 0.00 0.00 73 1018.1
20260507091544 55 44 1.7 1.7 0.00 0.00 0.00 71 1018.1
20260507091042 54 42 3.5 4.3 0.00 0.00 0.00 70 1017.8
20260507090539 55 36 2.6 5.2 0.00 0.00 0.00 71 1017.8
20260507090037 55 3 3.5 4.3 0.00 0.00 0.00 70 1017.8
20260507085534 54 2 1.7 2.6 0.00 0.00 0.00 69 1017.8
20260507085031 55 32 1.7 1.7 0.00 0.00 0.00 72 1017.8
20260507084529 54 21 3.5 4.3 0.00 0.00 0.00 73 1017.8
20260507084027 54 28 3.5 5.2 0.00 0.00 0.00 72 1017.8
20260507083524 54 70 2.6 2.6 0.00 0.00 0.00 71 1017.8
20260507082519 55 50 1.7 2.6 0.00 0.00 0.00 73 1017.8
20260507082017 54 23 5.2 6.1 0.00 0.00 0.00 71 1017.8
20260507081514 55 38 1.7 2.6 0.00 0.00 0.00 70 1017.8
20260507081011 55 3 0.9 1.7 0.00 0.00 0.00 71 1017.8
20260507080509 55 73 0.9 1.7 0.00 0.00 0.00 73 1017.8
20260507080007 55 83 1.7 3.5 0.00 0.00 0.00 71 1017.8
20260507075504 55 56 3.5 6.1 0.00 0.00 0.00 72 1017.8
20260507074500 55 34 1.7 3.5 0.00 0.00 0.00 71 1017.8
20260507073957 55 97 3.5 3.5 0.00 0.00 0.00 72 1017.8
20260507073454 55 90 1.7 6.1 0.00 0.00 0.00 69 1017.8
20260507072952 55 14 1.7 4.3 0.00 0.00 0.00 73 1017.8
20260507072449 55 107 1.7 2.6 0.00 0.00 0.00 74 1017.8
20260507071947 55 80 3.5 3.5 0.00 0.00 0.00 73 1017.8
20260507071445 55 71 1.7 3.5 0.00 0.00 0.00 74 1017.8
20260507070942 55 77 2.6 5.2 0.00 0.00 0.00 73 1017.8
20260507070440 55 73 1.7 4.3 0.00 0.00 0.00 74 1017.8
20260507065938 55 355 1.7 5.2 0.00 0.00 0.00 73 1017.8
20260507065435 55 23 2.6 4.3 0.00 0.00 0.00 71 1017.8
20260507064932 55 57 0.9 0.9 0.00 0.00 0.00 73 1017.4
20260507064430 55 353 5.2 5.2 0.00 0.00 0.00 73 1017.4
20260507063928 54 42 3.5 3.5 0.00 0.00 0.00 77 1017.4
20260507063425 54 59 0.9 0.9 0.00 0.00 0.00 81 1017.4
20260507062922 52 74 1.7 2.6 0.00 0.00 0.00 84 1017.4
20260507062420 52 87 0.9 1.7 0.00 0.00 0.00 86 1017.4
20260507061918 50 33 1.7 1.7 0.00 0.00 0.00 89 1017.4
20260507061416 50 78 0.9 0.9 0.00 0.00 0.00 90 1017.4
20260507060913 48 57 0.9 0.9 0.00 0.00 0.00 92 1017.4
20260507060411 48 14 0.9 0.9 0.00 0.00 0.00 94 1017.4
20260507055908 48 15 0.0 0.0 0.00 0.00 0.00 94 1017.4
20260507055406 46 24 0.0 0.0 0.00 0.00 0.00 94 1017.4
20260507054903 46 38 0.0 0.0 0.00 0.00 0.00 94 1017.4
20260507054401 46 64 0.9 0.9 0.00 0.00 0.00 95 1017.1
20260507053356 46 19 0.0 0.0 0.00 0.00 0.00 96 1017.1
20260507052352 45 11 0.0 0.0 0.00 0.00 0.00 96 1017.1
20260507051849 45 3 0.0 0.0 0.00 0.00 0.00 96 1017.1
20260507051346 45 16 0.0 0.0 0.00 0.00 0.00 96 1017.1
20260507050844 45 25 0.0 0.0 0.00 0.00 0.00 96 1017.1
20260507050342 45 28 0.0 0.0 0.00 0.00 0.00 96 1017.1
20260507045838 45 12 0.0 0.0 0.00 0.00 0.00 96 1017.1
20260507045336 43 27 0.0 0.0 0.00 0.00 0.00 96 1017.1
20260507044834 43 55 0.9 0.9 0.00 0.00 0.00 96 1016.7
20260507044332 43 9 0.0 0.0 0.00 0.00 0.00 97 1016.7
20260507043326 41 28 0.0 0.0 0.00 0.00 0.00 96 1016.7
20260507042825 43 61 0.0 0.0 0.00 0.00 0.00 96 1016.7
20260507042322 41 26 0.0 0.0 0.00 0.00 0.00 96 1016.7
20260507041819 43 30 0.0 0.0 0.00 0.00 0.00 96 1016.7
20260507041317 43 54 0.9 0.9 0.00 0.00 0.00 96 1016.7
20260507040815 45 10 0.0 0.0 0.00 0.00 0.00 96 1016.7
20260507040312 45 342 0.9 0.9 0.00 0.00 0.00 97 1016.7
20260507035809 45 329 0.9 0.9 0.00 0.00 0.00 97 1016.7
20260507035307 43 0 0.0 0.0 0.00 0.00 0.00 96 1016.7
20260507034804 43 23 0.0 0.0 0.00 0.00 0.00 96 1016.7
20260507034301 43 21 0.0 0.0 0.00 0.00 0.00 96 1016.7
20260507033257 43 4 0.0 0.0 0.00 0.00 0.00 96 1016.7
20260507032754 43 353 0.9 0.9 0.00 0.00 0.00 96 1016.7
20260507031750 43 276 0.0 0.9 0.00 0.00 0.00 95 1016.7
20260507031247 43 320 0.9 0.9 0.00 0.00 0.00 95 1016.7
20260507030745 43 345 0.9 0.9 0.00 0.00 0.00 95 1016.7
20260507025740 45 0 0.0 0.9 0.00 0.00 0.00 94 1016.7
20260507025238 45 0 0.0 0.0 0.00 0.00 0.00 94 1016.7
20260507024735 45 340 0.9 0.9 0.00 0.00 0.00 94 1016.7
20260507024233 45 330 0.9 0.9 0.00 0.00 0.00 94 1016.7
20260507023731 45 287 0.9 0.9 0.00 0.00 0.00 94 1016.7
20260507023229 45 300 0.9 0.9 0.00 0.00 0.00 93 1016.7
20260507022725 45 320 0.9 0.9 0.00 0.00 0.00 93 1016.7
20260507022224 45 268 0.9 0.9 0.00 0.00 0.00 93 1016.7
20260507021721 45 317 0.0 0.9 0.00 0.00 0.00 93 1016.7
20260507021219 45 334 0.0 0.0 0.00 0.00 0.00 93 1016.7
20260507020716 45 333 0.0 0.9 0.00 0.00 0.00 93 1016.7
20260507020213 45 345 0.9 0.9 0.00 0.00 0.00 93 1016.4
20260507015711 45 0 0.9 0.9 0.00 0.00 0.00 93 1016.4
20260507014706 45 297 0.9 0.9 0.00 0.00 0.00 93 1016.4
20260507014203 45 282 0.9 0.9 0.00 0.00 0.00 93 1016.4
20260507013701 45 0 0.9 0.9 0.00 0.00 0.00 93 1016.4
20260507013159 45 16 0.9 0.9 0.00 0.00 0.00 93 1016.4
20260507012656 45 354 0.0 0.0 0.00 0.00 0.00 93 1016.4
20260507012154 45 349 0.0 0.0 0.00 0.00 0.00 93 1016.4
20260507011651 45 344 0.0 0.9 0.00 0.00 0.00 92 1016.4
20260507011148 45 354 0.9 0.9 0.00 0.00 0.00 93 1016.4
20260507010646 45 351 0.0 0.9 0.00 0.00 0.00 92 1016.4
20260507010143 45 319 0.9 0.9 0.00 0.00 0.00 92 1016.4
20260507005641 45 325 0.9 0.9 0.00 0.00 0.00 92 1016.4
20260507005138 45 341 0.0 0.0 0.00 0.00 0.00 91 1016.4
20260507004636 45 6 0.0 0.0 0.00 0.00 0.00 90 1016.4
20260507004134 46 28 0.0 0.0 0.00 0.00 0.00 90 1016.4
20260507003631 46 4 0.9 0.9 0.00 0.00 0.00 91 1016.4
20260507003129 45 345 0.9 0.9 0.00 0.00 0.00 91 1016.4
20260507002626 45 315 0.9 0.9 0.00 0.00 0.00 91 1016.4
20260507002124 45 290 0.9 0.9 0.00 0.00 0.00 91 1016.4
20260507001622 46 315 0.9 0.9 0.00 0.00 0.00 91 1016.4
20260507001120 46 284 0.9 0.9 0.00 0.00 0.00 90 1016.4
20260507000618 46 317 0.9 0.9 0.00 0.00 0.00 90 1016.4
20260507000116 46 344 0.9 0.9 0.00 0.00 0.00 90 1016.4
20260506235613 46 313 0.9 0.9 0.00 0.00 0.00 89 1016.4
20260506235110 46 326 0.9 0.9 0.00 0.00 0.00 88 1016.4
20260506234608 46 338 0.9 0.9 0.00 0.00 0.00 88 1016.4
20260506234106 46 348 0.0 0.9 0.00 0.00 0.00 88 1016.4
20260506233604 46 8 0.9 1.7 0.00 0.00 0.00 88 1016.4
20260506233101 46 358 1.7 1.7 0.00 0.00 0.00 88 1016.4
20260506232559 46 5 0.9 0.9 0.00 0.00 0.00 88 1016.4
20260506232057 46 336 0.9 0.9 0.00 0.00 0.00 88 1016.4
20260506231555 48 323 0.9 0.9 0.00 0.00 0.00 88 1016.4
20260506231052 48 22 1.7 1.7 0.00 0.00 0.00 88 1016.4
20260506230550 48 351 0.9 0.9 0.00 0.00 0.00 88 1016.4
20260506230048 48 357 0.9 1.7 0.00 0.00 0.00 87 1016.4
20260506225546 48 24 0.9 0.9 0.00 0.00 0.00 87 1016.4
20260506225043 48 324 0.9 0.9 0.00 0.00 0.00 87 1016.4
20260506224037 48 64 1.7 2.6 0.00 0.00 0.00 86 1016.1
20260506223534 48 344 2.6 3.5 0.00 0.00 0.00 86 1016.1
20260506223031 48 354 1.7 1.7 0.00 0.00 0.00 86 1016.1
20260506222529 48 33 0.9 1.7 0.00 0.00 0.00 85 1016.1
20260506222027 50 32 0.9 1.7 0.00 0.00 0.00 84 1016.1
20260506221525 48 28 0.9 0.9 0.00 0.00 0.00 85 1016.1
20260506221022 50 47 1.7 3.5 0.00 0.00 0.00 85 1016.1
20260506220520 50 27 1.7 2.6 0.00 0.00 0.00 85 1016.1
20260506220017 50 39 1.7 2.6 0.00 0.00 0.00 85 1016.1
20260506215515 50 8 1.7 1.7 0.00 0.00 0.00 85 1016.1
20260506215013 50 50 0.0 0.9 0.00 0.00 0.00 85 1016.1